Погода в Нижнемитякине

Россия / Ростовская область     48°41′55″N   40°02′47″E
темп.,
°C
ветер,
м/с
пор.,
м/с
влажн.,
%
обл.,
%
осадки,
мм/ч
давл.,
гПа
погр.,
м
8 августа, пн
пн800:00+24всв36318 0.0 101477
03:00+22всв49331 0.0 1015127
06:00+21всв33374 0.0 101649
09:00+29св34240 0.0 1017540
12:00+34всв451773 0.0 10163721
15:00+35в341464 0.0 10154117
18:00+34ссв45169 0.0 10151581
21:00+27св472516 0.0 101696
9 августа, вт
вт900:00+24в412325 0.0 1016207
03:00+22в34375 0.0 101650
06:00+21всв35400 0.0 101787
09:00+29в46270 0.0 1017641
12:00+34всв45180 0.0 10163079
15:00+35в55160 0.0 10153465
18:00+34в36172 0.0 10143755
21:00+27св4102782 0.0 1014161
10 августа, ср
ср1000:00+25всв47295 0.0 1014114
03:00+23вюв36344 0.0 101491
06:00+23всв11375 0.0 101412
09:00+31вюв22242 0.0 1014388
12:00+36в46155 0.0 10133955
15:00+37в571412 0.0 10114205
18:00+34юв6102029 0.0 1011831
21:00+28всв5102829 0.0 1012178
11 августа, чт
чт1100:00+25всв41040100 0.3 1012182
03:00+23всв484831 0.3 1013137
06:00+24всв4844100 0.0 1014175
09:00+31всв562729 0.0 1014591
12:00+36вюв7111938 0.0 10133681
15:00+37вюв81015100 0.0 10124168
18:00+35в5818100 0.0 10121469
21:00+30св91428100 0.0 1014511
12 августа, пт
пт1200:00+29в91631100 0.0 1015862
03:00+28в91435100 0.0 1015506
06:00+24всв6124558 0.0 1016336
09:00+31в78295 0.0 1017779
12:00+35в78205 0.0 10162430
15:00+37в781712 0.0 10153894
18:00+35в7818100 0.0 10153479
21:00+31всв71426100 0.0 1016558